map of MMX home
MMX - Airport
Location
City:  Malmö, Skåne län, Sweden
Name:Malmö-Sturup Airport
ICAO:ESMS
IATA:MMX

Details
Type:Airport (Aerodrome, Airfield)
Use:Public/Civil, International (customs port of entry)
Latitude:55°31'49"N (55.530193)
Longitude:13°22'18"E (13.371639)
Datum:WGS 1984
Elevation:236 ft (72 m)
Variation:4.30°E (WMM2015v2 magnetic declination)
0.18° annual change
Runways:2
Longest:9186 × 148 ft (2800 × 45 m), paved

Time
Time Zone:UTC+1 (DST+2)
Local Time:

Weather
METAR:ESMS 041350Z 21016KT 9999 OVC010 02/01 Q1021 R17/19//95
TAF:ESMS 041111Z 0412/0512 21015KT 9999 FEW010 SCT030
BECMG 0420/0422 1200 SN BKN003
TEMPO 0422/0504 5000 -SNRA BKN008
BECMG 0504/0506 2500 BR
TEMPO 0506/0510 5000 BKN008
BECMG 0510/0512 27020KT 9999 NSW BKN020 SCT025TCU

Related Locations
Nearby:
Farthest:CHT: 11512 mi / 18526 km
Waitangi [Tuuta], CIT, NZ

Find:

   beyond  
but within

Other Information
Maps:
NOTAMs:
Links:
Sources:

  
  • flag of Sweden
  

Sectional Chart

Flight Planning
at skyvector.com

Satellite Image

Google Maps Satellite view

 

Copyright © 2004-2019 Karl L. Swartz. All rights reserved.
The Great Circle Mapper name and logo are trademarks of the Great Circle Mapper.
All other trademarks mentioned herein belong to their respective owners.
Please see credits for attibutions and further copyright information.

  Follow gcmap on Facebook Follow gcmap on Twitter GCmap on LinkedIn

hCard Microformat

Geo Microformat